Time,TemperatureF,DewpointF,PressureIn,WindDirection,WindDirectionDegrees,WindSpeedMPH,WindSpeedGustMPH,Humidity,HourlyPrecipIn,Conditions,Clouds,dailyrainin,SoftwareType,DateUTC
2013-06-29 00:01:00,71.1,69.3,29.36,SE,137,0.0,0.0,94,0.00,,,0.00,WeatherCatV1.11B39,2013-06-29 04:01:00,
2013-06-29 00:06:00,70.9,69.1,29.36,SE,143,0.0,0.0,94,0.00,,,0.00,WeatherCatV1.11B39,2013-06-29 04:06:00,
2013-06-29 00:11:00,70.9,69.1,29.35,SSE,152,0.0,0.0,94,0.00,,,0.00,WeatherCatV1.11B39,2013-06-29 04:11:00,
2013-06-29 00:16:00,70.9,69.4,29.34,SSE,155,0.0,2.0,95,0.00,,,0.00,WeatherCatV1.11B39,2013-06-29 04:16:00,
2013-06-29 00:21:00,70.7,69.2,29.34,WSW,243,0.0,3.0,95,0.00,,,0.00,WeatherCatV1.11B39,2013-06-29 04:21:00,
2013-06-29 00:26:00,70.7,69.2,29.35,WSW,239,0.0,0.0,95,0.00,,,0.00,WeatherCatV1.11B39,2013-06-29 04:26:00,
2013-06-29 00:31:00,70.7,69.2,29.35,WSW,239,0.0,2.0,95,0.00,,,0.00,WeatherCatV1.11B39,2013-06-29 04:31:00,
2013-06-29 00:36:00,70.5,69.0,29.35,South,169,1.0,3.0,95,0.00,,,0.00,WeatherCatV1.11B39,2013-06-29 04:36:00,
2013-06-29 00:41:00,70.5,69.0,29.35,SE,137,0.0,2.0,95,0.00,,,0.00,WeatherCatV1.11B39,2013-06-29 04:41:00,
2013-06-29 00:46:00,70.5,69.0,29.34,SSE,167,0.0,3.0,95,0.00,,,0.00,WeatherCatV1.11B39,2013-06-29 04:46:00,
2013-06-29 00:51:00,70.5,69.0,29.35,SSE,165,0.0,0.0,95,0.00,,,0.00,WeatherCatV1.11B39,2013-06-29 04:51:00,
2013-06-29 00:56:00,70.6,69.4,29.34,SE,146,1.0,3.0,96,0.00,,,0.00,WeatherCatV1.11B39,2013-06-29 04:56:00,
2013-06-29 01:01:00,70.5,69.0,29.34,SSE,155,0.0,3.0,95,0.00,,,0.00,WeatherCatV1.11B39,2013-06-29 05:01:00,
2013-06-29 01:06:00,70.5,69.0,29.34,SSE,155,0.0,0.0,95,0.00,,,0.00,WeatherCatV1.11B39,2013-06-29 05:06:00,
2013-06-29 01:11:00,70.6,69.4,29.34,SSE,168,0.0,3.0,96,0.00,,,0.00,WeatherCatV1.11B39,2013-06-29 05:11:00,
2013-06-29 01:16:00,70.5,69.3,29.34,South,191,0.0,0.0,96,0.00,,,0.00,WeatherCatV1.11B39,2013-06-29 05:16:00,
2013-06-29 01:21:00,70.6,69.1,29.34,SSW,196,0.0,0.0,95,0.00,,,0.00,WeatherCatV1.11B39,2013-06-29 05:21:00,
2013-06-29 01:26:00,70.6,69.1,29.34,SSW,192,0.0,0.0,95,0.00,,,0.00,WeatherCatV1.11B39,2013-06-29 05:26:00,
2013-06-29 01:31:00,70.5,69.3,29.34,SW,231,2.0,4.0,96,0.00,,,0.00,WeatherCatV1.11B39,2013-06-29 05:31:00,
2013-06-29 01:32:00,70.6,69.1,29.33,WSW,243,0.0,4.0,95,0.00,,,0.00,WeatherCatV1.11B39,2013-06-29 05:32:00,
2013-06-29 01:37:00,70.5,69.0,29.34,SW,220,0.0,3.0,95,0.00,,,0.00,WeatherCatV1.11B39,2013-06-29 05:37:00,
2013-06-29 01:42:00,70.7,69.2,29.34,WSW,255,3.0,4.0,95,0.00,,,0.00,WeatherCatV1.11B39,2013-06-29 05:42:00,
2013-06-29 01:47:00,70.7,69.5,29.33,SE,134,0.0,0.0,96,0.00,,,0.00,WeatherCatV1.11B39,2013-06-29 05:47:00,
2013-06-29 01:52:00,70.7,69.2,29.33,SE,126,0.0,0.0,95,0.00,,,0.00,WeatherCatV1.11B39,2013-06-29 05:52:00,
2013-06-29 01:57:00,70.7,69.5,29.33,SE,130,0.0,0.0,96,0.00,,,0.00,WeatherCatV1.11B39,2013-06-29 05:57:00,
2013-06-29 02:02:00,70.7,69.2,29.33,SE,137,0.0,0.0,95,0.00,,,0.00,WeatherCatV1.11B39,2013-06-29 06:02:00,
2013-06-29 02:07:00,70.6,69.1,29.33,SE,136,0.0,0.0,95,0.00,,,0.00,WeatherCatV1.11B39,2013-06-29 06:07:00,
2013-06-29 02:12:00,70.6,69.1,29.32,SSE,162,0.0,0.0,95,0.00,,,0.00,WeatherCatV1.11B39,2013-06-29 06:12:00,
2013-06-29 02:17:00,70.6,69.4,29.33,SSE,161,0.0,0.0,96,0.00,,,0.00,WeatherCatV1.11B39,2013-06-29 06:17:00,
2013-06-29 02:22:00,70.4,68.9,29.33,SSE,161,0.0,0.0,95,0.00,,,0.00,WeatherCatV1.11B39,2013-06-29 06:22:00,
2013-06-29 02:27:00,70.4,68.9,29.32,SSE,161,0.0,0.0,95,0.00,,,0.00,WeatherCatV1.11B39,2013-06-29 06:27:00,
2013-06-29 02:32:00,70.2,68.7,29.32,SE,133,0.0,0.0,95,0.00,,,0.00,WeatherCatV1.11B39,2013-06-29 06:32:00,
2013-06-29 02:37:00,70.2,68.7,29.33,SE,133,0.0,0.0,95,0.00,,,0.00,WeatherCatV1.11B39,2013-06-29 06:37:00,
2013-06-29 02:42:00,70.1,68.6,29.33,SE,133,0.0,0.0,95,0.00,,,0.00,WeatherCatV1.11B39,2013-06-29 06:42:00,
2013-06-29 02:47:00,70.1,68.9,29.33,SE,132,0.0,0.0,96,0.00,,,0.00,WeatherCatV1.11B39,2013-06-29 06:47:00,
2013-06-29 02:52:00,70.1,68.9,29.32,SSE,162,0.0,0.0,96,0.00,,,0.00,WeatherCatV1.11B39,2013-06-29 06:52:00,
2013-06-29 02:57:00,70.1,68.9,29.32,ESE,121,0.0,0.0,96,0.00,,,0.00,WeatherCatV1.11B39,2013-06-29 06:57:00,
2013-06-29 03:02:00,70.1,68.9,29.32,SSE,152,0.0,0.0,96,0.00,,,0.00,WeatherCatV1.11B39,2013-06-29 07:02:00,
2013-06-29 03:07:00,70.1,68.9,29.32,SE,141,0.0,0.0,96,0.00,,,0.00,WeatherCatV1.11B39,2013-06-29 07:07:00,
2013-06-29 03:12:00,70.1,69.2,29.33,SE,140,0.0,0.0,97,0.00,,,0.00,WeatherCatV1.11B39,2013-06-29 07:12:00,
2013-06-29 03:17:00,70.1,68.9,29.32,SE,125,0.0,0.0,96,0.00,,,0.00,WeatherCatV1.11B39,2013-06-29 07:17:00,
2013-06-29 03:22:00,70.0,69.1,29.32,SSE,167,0.0,0.0,97,0.00,,,0.00,WeatherCatV1.11B39,2013-06-29 07:22:00,
2013-06-29 03:27:00,70.1,69.2,29.32,SSE,166,0.0,0.0,97,0.00,,,0.00,WeatherCatV1.11B39,2013-06-29 07:27:00,
2013-06-29 03:32:00,70.1,69.2,29.32,SSE,166,0.0,0.0,97,0.00,,,0.00,WeatherCatV1.11B39,2013-06-29 07:32:00,
2013-06-29 03:34:00,70.0,69.1,29.33,SSE,166,0.0,0.0,97,0.00,,,0.00,WeatherCatV1.11B39,2013-06-29 07:34:00,
2013-06-29 03:39:00,70.2,69.3,29.33,South,174,0.0,0.0,97,0.00,,,0.00,WeatherCatV1.11B39,2013-06-29 07:39:00,
2013-06-29 03:44:00,70.2,69.3,29.33,South,174,0.0,0.0,97,0.00,,,0.00,WeatherCatV1.11B39,2013-06-29 07:44:00,
2013-06-29 03:49:00,70.2,69.3,29.33,South,174,0.0,0.0,97,0.00,,,0.00,WeatherCatV1.11B39,2013-06-29 07:49:00,
2013-06-29 03:54:00,70.4,69.5,29.33,South,174,0.0,0.0,97,0.00,,,0.00,WeatherCatV1.11B39,2013-06-29 07:54:00,
2013-06-29 03:59:00,70.6,69.7,29.33,South,174,0.0,0.0,97,0.00,,,0.00,WeatherCatV1.11B39,2013-06-29 07:59:00,
2013-06-29 04:04:00,70.5,69.6,29.34,South,174,0.0,0.0,97,0.00,,,0.00,WeatherCatV1.11B39,2013-06-29 08:04:00,
2013-06-29 04:09:00,70.6,69.7,29.34,SSW,204,0.0,0.0,97,0.00,,,0.00,WeatherCatV1.11B39,2013-06-29 08:09:00,
2013-06-29 04:14:00,70.7,69.8,29.33,SW,236,0.0,0.0,97,0.00,,,0.00,WeatherCatV1.11B39,2013-06-29 08:14:00,
2013-06-29 04:19:00,70.7,70.1,29.33,SW,236,0.0,0.0,98,0.00,,,0.00,WeatherCatV1.11B39,2013-06-29 08:19:00,
2013-06-29 04:24:00,70.7,69.8,29.33,SW,236,0.0,0.0,97,0.00,,,0.00,WeatherCatV1.11B39,2013-06-29 08:24:00,
2013-06-29 04:29:00,70.5,69.6,29.34,SW,236,0.0,0.0,97,0.00,,,0.00,WeatherCatV1.11B39,2013-06-29 08:29:00,
2013-06-29 04:34:00,70.5,69.6,29.33,SW,236,0.0,0.0,97,0.00,,,0.00,WeatherCatV1.11B39,2013-06-29 08:34:00,
2013-06-29 04:39:00,70.5,69.6,29.33,SW,236,0.0,0.0,97,0.00,,,0.00,WeatherCatV1.11B39,2013-06-29 08:39:00,
2013-06-29 04:44:00,70.6,69.7,29.33,SW,236,0.0,0.0,97,0.00,,,0.00,WeatherCatV1.11B39,2013-06-29 08:44:00,
2013-06-29 04:49:00,70.4,69.5,29.33,SW,236,0.0,0.0,97,0.00,,,0.00,WeatherCatV1.11B39,2013-06-29 08:49:00,
2013-06-29 04:54:00,70.4,69.5,29.34,SW,236,0.0,0.0,97,0.00,,,0.00,WeatherCatV1.11B39,2013-06-29 08:54:00,
2013-06-29 04:59:00,70.4,69.5,29.34,South,188,0.0,0.0,97,0.00,,,0.00,WeatherCatV1.11B39,2013-06-29 08:59:00,
2013-06-29 05:04:00,70.2,69.3,29.35,South,188,0.0,0.0,97,0.00,,,0.00,WeatherCatV1.11B39,2013-06-29 09:04:00,
2013-06-29 05:09:00,70.2,69.3,29.35,South,188,0.0,0.0,97,0.00,,,0.00,WeatherCatV1.11B39,2013-06-29 09:09:00,
2013-06-29 05:14:00,70.2,69.3,29.35,South,188,0.0,0.0,97,0.00,,,0.00,WeatherCatV1.11B39,2013-06-29 09:14:00,
2013-06-29 05:19:00,70.1,69.2,29.35,South,188,0.0,0.0,97,0.00,,,0.00,WeatherCatV1.11B39,2013-06-29 09:19:00,
2013-06-29 05:24:00,70.2,69.3,29.35,South,188,0.0,0.0,97,0.00,,,0.00,WeatherCatV1.11B39,2013-06-29 09:24:00,
2013-06-29 05:29:00,70.2,69.3,29.36,South,188,0.0,0.0,97,0.00,,,0.00,WeatherCatV1.11B39,2013-06-29 09:29:00,
2013-06-29 05:34:00,70.2,69.3,29.36,SSW,192,0.0,0.0,97,0.00,,,0.00,WeatherCatV1.11B39,2013-06-29 09:34:00,
2013-06-29 05:39:00,70.2,69.3,29.36,SSW,192,0.0,0.0,97,0.00,,,0.00,WeatherCatV1.11B39,2013-06-29 09:39:00,
2013-06-29 05:44:00,70.2,69.3,29.36,SSW,192,0.0,0.0,97,0.00,,,0.00,WeatherCatV1.11B39,2013-06-29 09:44:00,
2013-06-29 05:49:00,70.1,69.2,29.36,SSW,192,0.0,0.0,97,0.00,,,0.00,WeatherCatV1.11B39,2013-06-29 09:49:00,
2013-06-29 05:54:00,70.1,69.5,29.36,SSW,192,0.0,0.0,98,0.00,,,0.00,WeatherCatV1.11B39,2013-06-29 09:54:00,
2013-06-29 05:59:00,69.9,69.0,29.36,SSW,192,0.0,0.0,97,0.00,,,0.00,WeatherCatV1.11B39,2013-06-29 09:59:00,
2013-06-29 06:04:00,69.7,68.8,29.36,SSW,192,0.0,0.0,97,0.00,,,0.00,WeatherCatV1.11B39,2013-06-29 10:04:00,
2013-06-29 06:09:00,69.7,68.8,29.36,SSW,192,0.0,0.0,97,0.00,,,0.00,WeatherCatV1.11B39,2013-06-29 10:09:00,
2013-06-29 06:14:00,69.7,68.8,29.36,SSW,192,0.0,0.0,97,0.00,,,0.00,WeatherCatV1.11B39,2013-06-29 10:14:00,
2013-06-29 06:19:00,69.6,68.7,29.36,SSW,192,0.0,0.0,97,0.00,,,0.00,WeatherCatV1.11B39,2013-06-29 10:19:00,
2013-06-29 06:24:00,69.6,68.7,29.37,SSW,192,0.0,0.0,97,0.00,,,0.00,WeatherCatV1.11B39,2013-06-29 10:24:00,
2013-06-29 06:29:00,69.6,68.7,29.37,SSW,192,0.0,0.0,97,0.00,,,0.00,WeatherCatV1.11B39,2013-06-29 10:29:00,
2013-06-29 06:34:00,69.6,68.7,29.37,SSW,192,0.0,0.0,97,0.00,,,0.00,WeatherCatV1.11B39,2013-06-29 10:34:00,
2013-06-29 06:39:00,69.7,68.8,29.37,SSW,192,0.0,0.0,97,0.00,,,0.00,WeatherCatV1.11B39,2013-06-29 10:39:00,
2013-06-29 06:44:00,69.8,68.9,29.37,SSW,192,0.0,0.0,97,0.00,,,0.00,WeatherCatV1.11B39,2013-06-29 10:44:00,
2013-06-29 06:49:00,69.7,68.8,29.37,SSW,192,0.0,0.0,97,0.00,,,0.00,WeatherCatV1.11B39,2013-06-29 10:49:00,
2013-06-29 06:54:00,69.9,69.0,29.37,SSW,192,0.0,0.0,97,0.00,,,0.00,WeatherCatV1.11B39,2013-06-29 10:54:00,
2013-06-29 06:59:00,70.2,69.3,29.37,SSW,208,0.0,4.0,97,0.00,,,0.00,WeatherCatV1.11B39,2013-06-29 10:59:00,
2013-06-29 07:04:00,70.4,70.1,29.37,WSW,251,0.0,0.0,99,0.00,,,0.00,WeatherCatV1.11B39,2013-06-29 11:04:00,
2013-06-29 07:09:00,70.6,70.0,29.37,WSW,251,0.0,0.0,98,0.00,,,0.00,WeatherCatV1.11B39,2013-06-29 11:09:00,
2013-06-29 07:14:00,70.7,70.1,29.37,WSW,251,0.0,3.0,98,0.00,,,0.00,WeatherCatV1.11B39,2013-06-29 11:14:00,
2013-06-29 07:19:00,70.9,70.3,29.37,WSW,256,1.0,2.0,98,0.00,,,0.00,WeatherCatV1.11B39,2013-06-29 11:19:00,
2013-06-29 07:24:00,71.2,70.6,29.37,WSW,257,0.0,0.0,98,0.00,,,0.00,WeatherCatV1.11B39,2013-06-29 11:24:00,
2013-06-29 07:29:00,71.4,70.5,29.37,WSW,248,3.0,4.0,97,0.00,,,0.00,WeatherCatV1.11B39,2013-06-29 11:29:00,
2013-06-29 07:34:00,71.6,70.4,29.37,SW,230,3.0,8.0,96,0.00,,,0.00,WeatherCatV1.11B39,2013-06-29 11:34:00,
2013-06-29 07:39:00,71.7,70.2,29.37,WSW,244,5.0,7.0,95,0.00,,,0.00,WeatherCatV1.11B39,2013-06-29 11:39:00,
2013-06-29 07:44:00,71.9,70.1,29.38,SW,235,3.0,5.0,94,0.00,,,0.00,WeatherCatV1.11B39,2013-06-29 11:44:00,
2013-06-29 07:49:00,72.1,70.0,29.37,SW,235,3.0,4.0,93,0.00,,,0.00,WeatherCatV1.11B39,2013-06-29 11:49:00,
2013-06-29 07:54:00,72.1,69.3,29.38,WSW,243,2.0,4.0,91,0.00,,,0.00,WeatherCatV1.11B39,2013-06-29 11:54:00,
2013-06-29 07:59:00,72.3,69.5,29.38,WSW,245,1.0,4.0,91,0.00,,,0.00,WeatherCatV1.11B39,2013-06-29 11:59:00,
2013-06-29 08:04:00,72.4,69.3,29.38,WSW,245,1.0,2.0,90,0.00,,,0.00,WeatherCatV1.11B39,2013-06-29 12:04:00,
2013-06-29 08:09:00,72.8,69.7,29.38,WSW,245,0.0,0.0,90,0.00,,,0.00,WeatherCatV1.11B39,2013-06-29 12:09:00,
2013-06-29 08:14:00,72.8,69.4,29.39,WSW,245,2.0,4.0,89,0.00,,,0.00,WeatherCatV1.11B39,2013-06-29 12:14:00,
2013-06-29 08:19:00,72.8,69.0,29.39,WSW,250,3.0,6.0,88,0.00,,,0.00,WeatherCatV1.11B39,2013-06-29 12:19:00,
2013-06-29 08:24:00,72.9,69.1,29.39,WSW,250,0.0,0.0,88,0.00,,,0.00,WeatherCatV1.11B39,2013-06-29 12:24:00,
2013-06-29 08:29:00,73.1,69.3,29.38,WSW,250,0.0,0.0,88,0.00,,,0.00,WeatherCatV1.11B39,2013-06-29 12:29:00,
2013-06-29 08:34:00,73.4,69.3,29.38,WSW,250,0.0,0.0,87,0.00,,,0.00,WeatherCatV1.11B39,2013-06-29 12:34:00,
2013-06-29 08:39:00,73.6,69.1,29.39,WSW,250,0.0,0.0,86,0.00,,,0.00,WeatherCatV1.11B39,2013-06-29 12:39:00,
2013-06-29 08:44:00,74.0,69.2,29.39,WSW,253,3.0,5.0,85,0.00,,,0.00,WeatherCatV1.11B39,2013-06-29 12:44:00,
2013-06-29 08:49:00,74.3,69.5,29.38,WSW,239,3.0,6.0,85,0.00,,,0.00,WeatherCatV1.11B39,2013-06-29 12:49:00,
2013-06-29 08:54:00,74.5,69.0,29.38,WSW,239,2.0,4.0,83,0.00,,,0.00,WeatherCatV1.11B39,2013-06-29 12:54:00,
2013-06-29 08:59:00,74.4,68.5,29.38,WSW,248,2.0,4.0,82,0.00,,,0.00,WeatherCatV1.11B39,2013-06-29 12:59:00,
2013-06-29 09:04:00,74.4,67.8,29.38,WSW,252,4.0,7.0,80,0.00,,,0.00,WeatherCatV1.11B39,2013-06-29 13:04:00,
2013-06-29 09:09:00,74.4,68.2,29.39,WSW,254,0.0,7.0,81,0.00,,,0.00,WeatherCatV1.11B39,2013-06-29 13:09:00,
2013-06-29 09:14:00,74.7,68.1,29.39,WSW,256,3.0,5.0,80,0.00,,,0.00,WeatherCatV1.11B39,2013-06-29 13:14:00,
2013-06-29 09:19:00,74.8,68.6,29.38,WSW,245,3.0,4.0,81,0.00,,,0.00,WeatherCatV1.11B39,2013-06-29 13:19:00,
2013-06-29 09:24:00,74.8,68.2,29.39,WSW,247,2.0,4.0,80,0.00,,,0.00,WeatherCatV1.11B39,2013-06-29 13:24:00,
2013-06-29 09:29:00,75.0,69.1,29.39,WSW,248,0.0,0.0,82,0.00,,,0.00,WeatherCatV1.11B39,2013-06-29 13:29:00,
2013-06-29 09:34:00,75.0,69.1,29.39,WSW,244,0.0,4.0,82,0.00,,,0.00,WeatherCatV1.11B39,2013-06-29 13:34:00,
2013-06-29 09:39:00,74.8,68.6,29.39,WSW,246,0.0,0.0,81,0.00,,,0.00,WeatherCatV1.11B39,2013-06-29 13:39:00,
2013-06-29 09:44:00,74.8,68.6,29.39,WSW,240,4.0,6.0,81,0.00,,,0.00,WeatherCatV1.11B39,2013-06-29 13:44:00,
2013-06-29 09:49:00,74.6,68.7,29.40,WSW,250,0.0,0.0,82,0.00,,,0.00,WeatherCatV1.11B39,2013-06-29 13:49:00,
2013-06-29 09:54:00,74.6,68.7,29.39,West,263,0.0,6.0,82,0.00,,,0.00,WeatherCatV1.11B39,2013-06-29 13:54:00,
2013-06-29 09:59:00,74.5,68.6,29.39,West,261,0.0,3.0,82,0.00,,,0.00,WeatherCatV1.11B39,2013-06-29 13:59:00,
2013-06-29 10:04:00,74.3,69.1,29.40,West,260,1.0,5.0,84,0.00,,,0.00,WeatherCatV1.11B39,2013-06-29 14:04:00,
2013-06-29 10:09:00,74.3,69.1,29.40,West,260,0.0,3.0,84,0.00,,,0.00,WeatherCatV1.11B39,2013-06-29 14:09:00,
2013-06-29 10:14:00,74.1,68.6,29.40,SSW,199,0.0,0.0,83,0.00,,,0.00,WeatherCatV1.11B39,2013-06-29 14:14:00,
2013-06-29 10:19:00,74.1,68.9,29.40,SSW,194,0.0,3.0,84,0.00,,,0.00,WeatherCatV1.11B39,2013-06-29 14:19:00,
2013-06-29 10:24:00,74.1,68.9,29.39,ESE,116,1.0,7.0,84,0.00,,,0.00,WeatherCatV1.11B39,2013-06-29 14:24:00,
2013-06-29 10:29:00,74.1,68.9,29.39,WSW,258,1.0,4.0,84,0.00,,,0.00,WeatherCatV1.11B39,2013-06-29 14:29:00,
2013-06-29 10:34:00,74.0,68.8,29.39,SSW,212,0.0,0.0,84,0.00,,,0.00,WeatherCatV1.11B39,2013-06-29 14:34:00,
2013-06-29 10:39:00,73.8,69.0,29.40,SSW,212,0.0,5.0,85,0.00,,,0.00,WeatherCatV1.11B39,2013-06-29 14:39:00,
2013-06-29 10:44:00,73.8,69.3,29.40,WSW,251,0.0,0.0,86,0.00,,,0.00,WeatherCatV1.11B39,2013-06-29 14:44:00,
2013-06-29 10:49:00,73.6,68.8,29.40,WSW,240,2.0,5.0,85,0.00,,,0.01,WeatherCatV1.11B39,2013-06-29 14:49:00,
2013-06-29 10:54:00,73.6,69.5,29.39,WSW,244,0.0,0.0,87,0.00,,,0.01,WeatherCatV1.11B39,2013-06-29 14:54:00,
2013-06-29 10:59:00,73.4,69.6,29.39,SW,220,0.0,0.0,88,0.00,,,0.01,WeatherCatV1.11B39,2013-06-29 14:59:00,
2013-06-29 11:04:00,73.6,69.8,29.39,WSW,256,0.0,0.0,88,0.00,,,0.01,WeatherCatV1.11B39,2013-06-29 15:04:00,
2013-06-29 11:09:00,73.9,70.4,29.40,SW,225,0.0,5.0,89,0.00,,,0.01,WeatherCatV1.11B39,2013-06-29 15:09:00,
2013-06-29 11:14:00,74.3,70.5,29.39,WSW,248,0.0,3.0,88,0.00,,,0.01,WeatherCatV1.11B39,2013-06-29 15:14:00,
2013-06-29 11:19:00,74.5,70.4,29.40,SSE,168,0.0,7.0,87,0.00,,,0.01,WeatherCatV1.11B39,2013-06-29 15:19:00,
2013-06-29 11:24:00,74.6,69.8,29.40,WSW,256,1.0,4.0,85,0.00,,,0.01,WeatherCatV1.11B39,2013-06-29 15:24:00,
2013-06-29 11:30:00,74.3,69.1,29.40,WSW,247,2.0,7.0,84,0.00,,,0.01,WeatherCatV1.11B39,2013-06-29 15:30:00,
2013-06-29 11:35:00,74.3,69.1,29.41,WSW,243,4.0,6.0,84,0.00,,,0.01,WeatherCatV1.11B39,2013-06-29 15:35:00,
2013-06-29 11:40:00,74.7,69.9,29.40,WSW,251,3.0,5.0,85,0.00,,,0.01,WeatherCatV1.11B39,2013-06-29 15:40:00,
2013-06-29 11:45:00,74.6,69.4,29.40,WSW,250,2.0,8.0,84,0.00,,,0.01,WeatherCatV1.11B39,2013-06-29 15:45:00,
2013-06-29 11:50:00,74.8,69.6,29.41,WSW,251,0.0,4.0,84,0.00,,,0.01,WeatherCatV1.11B39,2013-06-29 15:50:00,
2013-06-29 11:55:00,75.3,70.1,29.41,WSW,245,7.0,8.0,84,0.00,,,0.01,WeatherCatV1.11B39,2013-06-29 15:55:00,
2013-06-29 12:00:00,75.7,69.8,29.41,WSW,256,5.0,9.0,82,0.00,,,0.01,WeatherCatV1.11B39,2013-06-29 16:00:00,
2013-06-29 12:05:00,76.2,69.2,29.40,WSW,248,4.0,8.0,79,0.00,,,0.01,WeatherCatV1.11B39,2013-06-29 16:05:00,
2013-06-29 12:10:00,76.6,69.2,29.40,WSW,242,5.0,6.0,78,0.00,,,0.01,WeatherCatV1.11B39,2013-06-29 16:10:00,
2013-06-29 12:15:00,76.8,69.8,29.40,WSW,247,0.0,0.0,79,0.00,,,0.01,WeatherCatV1.11B39,2013-06-29 16:15:00,
2013-06-29 12:20:00,77.0,69.2,29.41,WSW,253,4.0,5.0,77,0.00,,,0.01,WeatherCatV1.11B39,2013-06-29 16:20:00,
2013-06-29 12:25:00,77.3,69.1,29.40,WSW,255,2.0,7.0,76,0.00,,,0.01,WeatherCatV1.11B39,2013-06-29 16:25:00,
2013-06-29 12:30:00,77.4,68.4,29.40,WSW,249,6.0,12.0,74,0.00,,,0.01,WeatherCatV1.11B39,2013-06-29 16:30:00,
2013-06-29 12:35:00,77.6,68.2,29.40,WSW,246,3.0,9.0,73,0.00,,,0.01,WeatherCatV1.11B39,2013-06-29 16:35:00,
2013-06-29 12:40:00,77.7,67.9,29.40,WSW,251,0.0,8.0,72,0.00,,,0.01,WeatherCatV1.11B39,2013-06-29 16:40:00,
2013-06-29 12:45:00,77.7,67.9,29.40,WSW,249,0.0,8.0,72,0.00,,,0.01,WeatherCatV1.11B39,2013-06-29 16:45:00,
2013-06-29 12:50:00,78.0,67.4,29.40,WSW,242,0.0,7.0,70,0.00,,,0.01,WeatherCatV1.11B39,2013-06-29 16:50:00,
2013-06-29 12:55:00,78.4,67.4,29.40,WSW,241,12.0,12.0,69,0.00,,,0.01,WeatherCatV1.11B39,2013-06-29 16:55:00,
2013-06-29 13:00:00,78.4,67.8,29.40,SW,235,0.0,3.0,70,0.00,,,0.01,WeatherCatV1.11B39,2013-06-29 17:00:00,
2013-06-29 13:05:00,78.4,68.2,29.40,WSW,246,0.0,4.0,71,0.00,,,0.01,WeatherCatV1.11B39,2013-06-29 17:05:00,
2013-06-29 13:10:00,78.6,68.0,29.40,WSW,248,6.0,7.0,70,0.00,,,0.01,WeatherCatV1.11B39,2013-06-29 17:10:00,
2013-06-29 13:15:00,78.7,67.2,29.41,WSW,251,1.0,7.0,68,0.00,,,0.01,WeatherCatV1.11B39,2013-06-29 17:15:00,
2013-06-29 13:20:00,79.1,68.5,29.40,WSW,246,6.0,11.0,70,0.00,,,0.01,WeatherCatV1.11B39,2013-06-29 17:20:00,
2013-06-29 13:25:00,79.3,66.5,29.41,WSW,247,12.0,12.0,65,0.00,,,0.01,WeatherCatV1.11B39,2013-06-29 17:25:00,
2013-06-29 13:30:00,79.5,66.7,29.40,SW,228,1.0,9.0,65,0.00,,,0.01,WeatherCatV1.11B39,2013-06-29 17:30:00,
2013-06-29 13:35:00,79.3,66.9,29.40,WSW,249,6.0,10.0,66,0.00,,,0.01,WeatherCatV1.11B39,2013-06-29 17:35:00,
2013-06-29 13:40:00,78.9,67.4,29.40,SW,236,0.0,7.0,68,0.00,,,0.01,WeatherCatV1.11B39,2013-06-29 17:40:00,
2013-06-29 13:45:00,78.9,67.4,29.40,SW,221,0.0,0.0,68,0.00,,,0.01,WeatherCatV1.11B39,2013-06-29 17:45:00,
2013-06-29 13:50:00,78.9,67.8,29.41,WSW,256,6.0,9.0,69,0.00,,,0.01,WeatherCatV1.11B39,2013-06-29 17:50:00,
2013-06-29 13:55:00,78.9,67.4,29.40,WSW,247,4.0,9.0,68,0.00,,,0.01,WeatherCatV1.11B39,2013-06-29 17:55:00,
2013-06-29 14:00:00,79.1,68.5,29.40,South,181,2.0,6.0,70,0.00,,,0.01,WeatherCatV1.11B39,2013-06-29 18:00:00,
2013-06-29 14:05:00,79.4,67.9,29.40,WSW,242,0.0,6.0,68,0.00,,,0.01,WeatherCatV1.11B39,2013-06-29 18:05:00,
2013-06-29 14:10:00,79.5,68.0,29.40,WSW,250,0.0,5.0,68,0.00,,,0.01,WeatherCatV1.11B39,2013-06-29 18:10:00,
2013-06-29 14:15:00,79.7,68.2,29.40,WSW,245,2.0,12.0,68,0.00,,,0.01,WeatherCatV1.11B39,2013-06-29 18:15:00,
2013-06-29 14:20:00,79.7,67.7,29.40,WSW,246,5.0,12.0,67,0.00,,,0.01,WeatherCatV1.11B39,2013-06-29 18:20:00,
2013-06-29 14:25:00,79.8,67.8,29.40,WSW,244,3.0,11.0,67,0.00,,,0.01,WeatherCatV1.11B39,2013-06-29 18:25:00,
2013-06-29 14:30:00,80.0,67.2,29.40,SW,219,5.0,7.0,65,0.00,,,0.01,WeatherCatV1.11B39,2013-06-29 18:30:00,
2013-06-29 14:35:00,80.2,67.8,29.39,West,264,0.0,7.0,66,0.00,,,0.01,WeatherCatV1.11B39,2013-06-29 18:35:00,
2013-06-29 14:40:00,80.2,66.9,29.40,South,178,5.0,10.0,64,0.00,,,0.01,WeatherCatV1.11B39,2013-06-29 18:40:00,
2013-06-29 14:45:00,80.2,67.3,29.40,WSW,237,4.0,8.0,65,0.00,,,0.01,WeatherCatV1.11B39,2013-06-29 18:45:00,
2013-06-29 14:50:00,80.0,66.7,29.40,West,262,9.0,15.0,64,0.00,,,0.01,WeatherCatV1.11B39,2013-06-29 18:50:00,
2013-06-29 14:55:00,80.0,67.2,29.40,SSW,212,0.0,11.0,65,0.00,,,0.01,WeatherCatV1.11B39,2013-06-29 18:55:00,
2013-06-29 15:00:00,80.2,66.4,29.40,SW,218,2.0,9.0,63,0.00,,,0.01,WeatherCatV1.11B39,2013-06-29 19:00:00,
2013-06-29 15:05:00,80.2,66.9,29.40,SW,216,5.0,9.0,64,0.00,,,0.01,WeatherCatV1.11B39,2013-06-29 19:05:00,
2013-06-29 15:10:00,80.4,66.2,29.40,WSW,247,3.0,7.0,62,0.00,,,0.01,WeatherCatV1.11B39,2013-06-29 19:10:00,
2013-06-29 15:15:00,80.4,66.6,29.40,WSW,248,6.0,12.0,63,0.00,,,0.01,WeatherCatV1.11B39,2013-06-29 19:15:00,
2013-06-29 15:20:00,80.2,65.0,29.40,SW,234,4.0,11.0,60,0.00,,,0.01,WeatherCatV1.11B39,2013-06-29 19:20:00,
2013-06-29 15:25:00,80.4,66.6,29.40,WSW,241,0.0,7.0,63,0.00,,,0.01,WeatherCatV1.11B39,2013-06-29 19:25:00,
2013-06-29 15:30:00,80.4,65.7,29.40,SW,234,0.0,9.0,61,0.00,,,0.01,WeatherCatV1.11B39,2013-06-29 19:30:00,
2013-06-29 15:35:00,80.2,64.5,29.40,WSW,244,8.0,12.0,59,0.00,,,0.01,WeatherCatV1.11B39,2013-06-29 19:35:00,
2013-06-29 15:40:00,80.4,65.7,29.40,SW,223,4.0,8.0,61,0.00,,,0.01,WeatherCatV1.11B39,2013-06-29 19:40:00,
2013-06-29 15:45:00,80.8,66.1,29.40,WSW,241,5.0,13.0,61,0.00,,,0.01,WeatherCatV1.11B39,2013-06-29 19:45:00,
2013-06-29 15:50:00,80.8,65.6,29.40,WSW,250,10.0,10.0,60,0.00,,,0.01,WeatherCatV1.11B39,2013-06-29 19:50:00,
2013-06-29 15:55:00,81.0,66.3,29.41,WSW,248,11.0,11.0,61,0.00,,,0.01,WeatherCatV1.11B39,2013-06-29 19:55:00,
2013-06-29 16:00:00,80.9,64.7,29.41,SW,228,3.0,13.0,58,0.00,,,0.01,WeatherCatV1.11B39,2013-06-29 20:00:00,
2013-06-29 16:05:00,81.0,66.3,29.40,WSW,242,8.0,12.0,61,0.00,,,0.01,WeatherCatV1.11B39,2013-06-29 20:05:00,
2013-06-29 16:10:00,81.0,64.8,29.40,WSW,245,7.0,9.0,58,0.00,,,0.01,WeatherCatV1.11B39,2013-06-29 20:10:00,
2013-06-29 16:15:00,81.0,65.3,29.41,WSW,245,11.0,12.0,59,0.00,,,0.01,WeatherCatV1.11B39,2013-06-29 20:15:00,
2013-06-29 16:20:00,80.8,66.1,29.41,East,89,3.0,10.0,61,0.00,,,0.01,WeatherCatV1.11B39,2013-06-29 20:20:00,
2013-06-29 16:25:00,81.0,66.3,29.41,WSW,249,4.0,10.0,61,0.00,,,0.01,WeatherCatV1.11B39,2013-06-29 20:25:00,
2013-06-29 16:30:00,80.6,65.9,29.41,WSW,250,0.0,5.0,61,0.00,,,0.01,WeatherCatV1.11B39,2013-06-29 20:30:00,
2013-06-29 16:35:00,80.4,66.6,29.41,WSW,238,0.0,5.0,63,0.00,,,0.01,WeatherCatV1.11B39,2013-06-29 20:35:00,
2013-06-29 16:40:00,80.4,66.2,29.41,WSW,253,6.0,9.0,62,0.00,,,0.01,WeatherCatV1.11B39,2013-06-29 20:40:00,
2013-06-29 16:45:00,80.6,65.9,29.42,WSW,251,5.0,11.0,61,0.00,,,0.01,WeatherCatV1.11B39,2013-06-29 20:45:00,
2013-06-29 16:50:00,80.6,65.9,29.42,WSW,253,9.0,12.0,61,0.00,,,0.01,WeatherCatV1.11B39,2013-06-29 20:50:00,
2013-06-29 16:55:00,80.6,65.9,29.42,SSW,198,3.0,7.0,61,0.00,,,0.01,WeatherCatV1.11B39,2013-06-29 20:55:00,
2013-06-29 17:00:00,80.6,65.9,29.42,WSW,248,7.0,7.0,61,0.00,,,0.01,WeatherCatV1.11B39,2013-06-29 21:00:00,
2013-06-29 17:05:00,80.4,65.7,29.42,WSW,250,13.0,18.0,61,0.00,,,0.01,WeatherCatV1.11B39,2013-06-29 21:05:00,
2013-06-29 17:10:00,80.4,66.2,29.42,WSW,250,0.0,2.0,62,0.00,,,0.01,WeatherCatV1.11B39,2013-06-29 21:10:00,
2013-06-29 17:15:00,80.6,66.8,29.42,WSW,240,0.0,0.0,63,0.00,,,0.01,WeatherCatV1.11B39,2013-06-29 21:15:00,
2013-06-29 17:20:00,80.6,66.8,29.42,SSE,149,0.0,7.0,63,0.00,,,0.01,WeatherCatV1.11B39,2013-06-29 21:20:00,
2013-06-29 17:25:00,80.4,66.6,29.42,WSW,238,4.0,8.0,63,0.00,,,0.01,WeatherCatV1.11B39,2013-06-29 21:25:00,
2013-06-29 17:30:00,80.2,67.3,29.43,WSW,252,5.0,8.0,65,0.00,,,0.01,WeatherCatV1.11B39,2013-06-29 21:30:00,
2013-06-29 17:35:00,80.2,66.4,29.43,WSW,243,2.0,14.0,63,0.00,,,0.01,WeatherCatV1.11B39,2013-06-29 21:35:00,
2013-06-29 17:40:00,80.2,66.0,29.43,SW,234,0.0,0.0,62,0.00,,,0.01,WeatherCatV1.11B39,2013-06-29 21:40:00,
2013-06-29 17:45:00,80.0,66.2,29.42,West,259,4.0,11.0,63,0.00,,,0.01,WeatherCatV1.11B39,2013-06-29 21:45:00,
2013-06-29 17:50:00,79.8,66.5,29.43,WSW,237,7.0,10.0,64,0.00,,,0.01,WeatherCatV1.11B39,2013-06-29 21:50:00,
2013-06-29 17:55:00,79.7,66.9,29.43,WSW,242,5.0,8.0,65,0.00,,,0.01,WeatherCatV1.11B39,2013-06-29 21:55:00,
2013-06-29 18:00:00,79.8,67.0,29.43,WSW,243,0.0,9.0,65,0.00,,,0.01,WeatherCatV1.11B39,2013-06-29 22:00:00,
2013-06-29 18:05:00,79.7,66.9,29.43,WSW,238,3.0,7.0,65,0.00,,,0.01,WeatherCatV1.11B39,2013-06-29 22:05:00,
2013-06-29 18:10:00,79.7,66.9,29.43,WSW,239,4.0,5.0,65,0.00,,,0.01,WeatherCatV1.11B39,2013-06-29 22:10:00,
2013-06-29 18:15:00,79.5,66.7,29.43,SSE,163,0.0,10.0,65,0.00,,,0.01,WeatherCatV1.11B39,2013-06-29 22:15:00,
2013-06-29 18:20:00,79.5,66.7,29.43,WSW,243,3.0,5.0,65,0.00,,,0.01,WeatherCatV1.11B39,2013-06-29 22:20:00,
2013-06-29 18:25:00,79.3,66.5,29.43,WSW,247,9.0,9.0,65,0.00,,,0.01,WeatherCatV1.11B39,2013-06-29 22:25:00,
2013-06-29 18:30:00,79.3,66.9,29.44,SW,228,4.0,7.0,66,0.00,,,0.01,WeatherCatV1.11B39,2013-06-29 22:30:00,
2013-06-29 18:35:00,79.1,67.2,29.43,WSW,250,5.0,7.0,67,0.00,,,0.01,WeatherCatV1.11B39,2013-06-29 22:35:00,
2013-06-29 18:40:00,78.7,66.8,29.44,WSW,248,0.0,9.0,67,0.00,,,0.01,WeatherCatV1.11B39,2013-06-29 22:40:00,
2013-06-29 18:45:00,78.5,67.0,29.44,WSW,241,0.0,9.0,68,0.00,,,0.01,WeatherCatV1.11B39,2013-06-29 22:45:00,
2013-06-29 18:50:00,78.4,67.4,29.44,WSW,246,0.0,7.0,69,0.00,,,0.01,WeatherCatV1.11B39,2013-06-29 22:50:00,
2013-06-29 18:55:00,78.4,67.4,29.44,SSW,197,5.0,5.0,69,0.00,,,0.01,WeatherCatV1.11B39,2013-06-29 22:55:00,
2013-06-29 19:00:00,78.0,67.4,29.44,WSW,255,6.0,7.0,70,0.00,,,0.01,WeatherCatV1.11B39,2013-06-29 23:00:00,
2013-06-29 19:05:00,77.7,67.1,29.45,WSW,240,3.0,6.0,70,0.00,,,0.01,WeatherCatV1.11B39,2013-06-29 23:05:00,
2013-06-29 19:10:00,77.5,67.3,29.44,SW,224,0.0,1.0,71,0.00,,,0.01,WeatherCatV1.11B39,2013-06-29 23:10:00,
2013-06-29 19:15:00,77.3,67.1,29.45,SSE,167,0.0,0.0,71,0.00,,,0.01,WeatherCatV1.11B39,2013-06-29 23:15:00,
2013-06-29 19:20:00,77.1,67.8,29.44,SW,233,0.0,0.0,73,0.00,,,0.01,WeatherCatV1.11B39,2013-06-29 23:20:00,
2013-06-29 19:25:00,76.9,67.2,29.45,WSW,243,0.0,0.0,72,0.00,,,0.01,WeatherCatV1.11B39,2013-06-29 23:25:00,
2013-06-29 19:30:00,76.7,67.4,29.45,WSW,246,0.0,0.0,73,0.00,,,0.01,WeatherCatV1.11B39,2013-06-29 23:30:00,
2013-06-29 19:35:00,76.6,67.3,29.46,SSW,196,0.0,0.0,73,0.00,,,0.01,WeatherCatV1.11B39,2013-06-29 23:35:00,
2013-06-29 19:40:00,76.4,67.1,29.46,WSW,242,0.0,0.0,73,0.00,,,0.01,WeatherCatV1.11B39,2013-06-29 23:40:00,
2013-06-29 19:45:00,76.2,66.9,29.46,WSW,240,7.0,7.0,73,0.00,,,0.01,WeatherCatV1.11B39,2013-06-29 23:45:00,
2013-06-29 19:50:00,76.0,66.7,29.46,West,274,0.0,0.0,73,0.00,,,0.01,WeatherCatV1.11B39,2013-06-29 23:50:00,
2013-06-29 19:55:00,76.0,66.3,29.47,WSW,249,6.0,7.0,72,0.00,,,0.01,WeatherCatV1.11B39,2013-06-29 23:55:00,
2013-06-29 20:00:00,75.9,66.2,29.47,SSW,211,0.0,7.0,72,0.00,,,0.01,WeatherCatV1.11B39,2013-06-30 00:00:00,
2013-06-29 20:05:00,75.7,66.4,29.47,SW,235,2.0,9.0,73,0.00,,,0.01,WeatherCatV1.11B39,2013-06-30 00:05:00,
2013-06-29 20:10:00,75.7,65.6,29.47,WSW,246,2.0,10.0,71,0.00,,,0.01,WeatherCatV1.11B39,2013-06-30 00:10:00,
2013-06-29 20:15:00,75.5,65.4,29.47,WSW,255,5.0,5.0,71,0.00,,,0.01,WeatherCatV1.11B39,2013-06-30 00:15:00,
2013-06-29 20:20:00,75.4,65.7,29.47,SW,229,0.0,0.0,72,0.00,,,0.01,WeatherCatV1.11B39,2013-06-30 00:20:00,
2013-06-29 20:25:00,75.2,65.5,29.47,WSW,245,0.0,0.0,72,0.00,,,0.01,WeatherCatV1.11B39,2013-06-30 00:25:00,
2013-06-29 20:30:00,75.0,65.7,29.47,SW,223,0.0,0.0,73,0.00,,,0.01,WeatherCatV1.11B39,2013-06-30 00:30:00,
2013-06-29 20:35:00,74.8,65.5,29.47,WSW,247,0.0,1.0,73,0.00,,,0.01,WeatherCatV1.11B39,2013-06-30 00:35:00,
2013-06-29 20:40:00,74.4,65.6,29.47,WSW,257,3.0,6.0,74,0.00,,,0.01,WeatherCatV1.11B39,2013-06-30 00:40:00,
2013-06-29 20:45:00,74.4,65.9,29.48,WSW,248,0.0,0.0,75,0.00,,,0.01,WeatherCatV1.11B39,2013-06-30 00:45:00,
2013-06-29 20:50:00,74.3,65.8,29.48,WSW,239,0.0,1.0,75,0.00,,,0.01,WeatherCatV1.11B39,2013-06-30 00:50:00,
2013-06-29 20:55:00,74.1,66.0,29.47,West,268,0.0,0.0,76,0.00,,,0.01,WeatherCatV1.11B39,2013-06-30 00:55:00,
2013-06-29 21:00:00,74.0,65.9,29.48,WSW,243,0.0,0.0,76,0.00,,,0.01,WeatherCatV1.11B39,2013-06-30 01:00:00,
2013-06-29 21:05:00,74.0,65.9,29.49,WSW,241,0.0,0.0,76,0.00,,,0.01,WeatherCatV1.11B39,2013-06-30 01:05:00,
2013-06-29 21:10:00,73.8,66.1,29.48,WSW,241,0.0,0.0,77,0.00,,,0.01,WeatherCatV1.11B39,2013-06-30 01:10:00,
2013-06-29 21:15:00,73.6,66.3,29.49,South,187,0.0,1.0,78,0.00,,,0.01,WeatherCatV1.11B39,2013-06-30 01:15:00,
2013-06-29 21:20:00,73.5,65.8,29.49,South,185,0.0,0.0,77,0.00,,,0.01,WeatherCatV1.11B39,2013-06-30 01:20:00,
2013-06-29 21:25:00,73.3,66.0,29.49,SW,227,0.0,0.0,78,0.00,,,0.01,WeatherCatV1.11B39,2013-06-30 01:25:00,
2013-06-29 21:30:00,73.1,66.2,29.49,SW,218,0.0,4.0,79,0.00,,,0.01,WeatherCatV1.11B39,2013-06-30 01:30:00,
2013-06-29 21:35:00,72.9,66.0,29.50,SSW,197,0.0,0.0,79,0.00,,,0.01,WeatherCatV1.11B39,2013-06-30 01:35:00,
2013-06-29 21:40:00,72.8,65.9,29.50,South,173,0.0,5.0,79,0.00,,,0.01,WeatherCatV1.11B39,2013-06-30 01:40:00,
2013-06-29 21:45:00,72.8,66.3,29.50,WSW,242,0.0,0.0,80,0.00,,,0.01,WeatherCatV1.11B39,2013-06-30 01:45:00,
2013-06-29 21:50:00,72.8,66.3,29.50,SW,236,0.0,0.0,80,0.00,,,0.01,WeatherCatV1.11B39,2013-06-30 01:50:00,
2013-06-29 21:55:00,72.6,66.1,29.50,WSW,249,0.0,0.0,80,0.00,,,0.01,WeatherCatV1.11B39,2013-06-30 01:55:00,
2013-06-29 22:00:00,72.6,66.4,29.51,WSW,257,0.0,1.0,81,0.00,,,0.01,WeatherCatV1.11B39,2013-06-30 02:00:00,
2013-06-29 22:05:00,72.6,66.4,29.51,South,184,0.0,0.0,81,0.00,,,0.01,WeatherCatV1.11B39,2013-06-30 02:05:00,
2013-06-29 22:10:00,72.4,66.6,29.51,SSW,206,0.0,0.0,82,0.00,,,0.01,WeatherCatV1.11B39,2013-06-30 02:10:00,
2013-06-29 22:15:00,72.4,66.2,29.51,SW,226,0.0,0.0,81,0.00,,,0.01,WeatherCatV1.11B39,2013-06-30 02:15:00,
2013-06-29 22:20:00,72.3,66.5,29.51,WSW,252,0.0,0.0,82,0.00,,,0.01,WeatherCatV1.11B39,2013-06-30 02:20:00,
2013-06-29 22:25:00,72.2,66.4,29.51,WSW,240,0.0,0.0,82,0.00,,,0.01,WeatherCatV1.11B39,2013-06-30 02:25:00,
2013-06-29 22:30:00,71.9,66.1,29.52,SW,217,0.0,0.0,82,0.00,,,0.01,WeatherCatV1.11B39,2013-06-30 02:30:00,
2013-06-29 22:35:00,71.9,66.1,29.52,SSE,166,0.0,0.0,82,0.00,,,0.01,WeatherCatV1.11B39,2013-06-30 02:35:00,
2013-06-29 22:40:00,71.7,66.2,29.52,SW,234,0.0,0.0,83,0.00,,,0.01,WeatherCatV1.11B39,2013-06-30 02:40:00,
2013-06-29 22:45:00,71.6,66.5,29.51,South,179,3.0,3.0,84,0.00,,,0.01,WeatherCatV1.11B39,2013-06-30 02:45:00,
2013-06-29 22:50:00,71.6,66.5,29.52,SW,218,0.0,3.0,84,0.00,,,0.01,WeatherCatV1.11B39,2013-06-30 02:50:00,
2013-06-29 22:55:00,71.6,66.8,29.51,SW,235,2.0,3.0,85,0.00,,,0.01,WeatherCatV1.11B39,2013-06-30 02:55:00,
2013-06-29 23:00:00,71.4,67.0,29.52,SW,217,0.0,2.0,86,0.00,,,0.01,WeatherCatV1.11B39,2013-06-30 03:00:00,
2013-06-29 23:05:00,71.4,67.0,29.52,SW,236,0.0,0.0,86,0.00,,,0.01,WeatherCatV1.11B39,2013-06-30 03:05:00,
2013-06-29 23:10:00,71.4,66.6,29.52,SW,236,0.0,0.0,85,0.00,,,0.01,WeatherCatV1.11B39,2013-06-30 03:10:00,
2013-06-29 23:15:00,71.2,66.8,29.52,SW,235,0.0,0.0,86,0.00,,,0.01,WeatherCatV1.11B39,2013-06-30 03:15:00,
2013-06-29 23:20:00,71.2,66.8,29.52,SW,235,0.0,0.0,86,0.00,,,0.01,WeatherCatV1.11B39,2013-06-30 03:20:00,
2013-06-29 23:25:00,71.1,66.7,29.52,SW,235,0.0,0.0,86,0.00,,,0.01,WeatherCatV1.11B39,2013-06-30 03:25:00,
2013-06-29 23:30:00,71.0,66.9,29.53,SW,235,0.0,0.0,87,0.00,,,0.01,WeatherCatV1.11B39,2013-06-30 03:30:00,
2013-06-29 23:35:00,70.9,66.8,29.53,SW,235,0.0,0.0,87,0.00,,,0.01,WeatherCatV1.11B39,2013-06-30 03:35:00,
2013-06-29 23:40:00,70.7,66.6,29.53,SW,235,0.0,0.0,87,0.00,,,0.01,WeatherCatV1.11B39,2013-06-30 03:40:00,
2013-06-29 23:45:00,70.7,66.6,29.53,SW,235,0.0,0.0,87,0.00,,,0.01,WeatherCatV1.11B39,2013-06-30 03:45:00,
2013-06-29 23:50:00,70.6,66.9,29.53,SW,235,0.0,0.0,88,0.00,,,0.01,WeatherCatV1.11B39,2013-06-30 03:50:00,
2013-06-29 23:55:00,70.4,66.7,29.53,SW,235,0.0,0.0,88,0.00,,,0.01,WeatherCatV1.11B39,2013-06-30 03:55:00,